Date String (YYYY-MM-DD hh:mm:ss) UTC,Instrument flags,Ambient pressure (hPa),Sample flow (lpm),Bypass flow (lpm),Sample temperature (°C),Ambient temperature (°C),ASC tube jacket temperature (°C),LED temperature (°C),Box temperature (°C),Sample RH (%),Span deviation,Mass concentration (μg/m³),Mass concentration (μg/m³),Mass concentration (μg/m³)
DateTimeUTC,F1_M11,P_M11,Q1_M11,Q2_M11,T1_M11,T2_M11,T3_M11,T4_M11,T5_M11,U1_M11,ZSPAN_M11,X0_M11,X2_M11,X1_M11
2021-11-08 17:00:00,,0832.7,5.00,0.00,27.8,26.8,00.0,36.8,29.5,15.1,0000.0,0008.86,0005.07,0004.45
2021-11-08 17:01:00,,0832.7,5.00,0.00,27.8,26.8,00.0,36.8,29.5,15.1,0000.0,0008.63,0005.14,0004.50
2021-11-08 17:02:00,,0832.8,4.99,0.00,27.7,26.8,00.0,36.8,29.5,15.1,0000.0,0008.70,0005.20,0004.55
2021-11-08 17:03:00,,0832.7,5.01,0.00,27.8,26.8,00.0,36.8,29.5,15.1,0000.0,0008.72,0005.24,0004.59
2021-11-08 17:04:00,,0832.8,4.99,0.00,27.7,26.8,00.0,36.8,29.5,15.0,0000.0,0008.86,0005.34,0004.67
2021-11-08 17:05:00,,0832.8,4.99,0.00,27.7,26.8,00.0,36.8,29.5,15.0,0000.0,0009.11,0005.46,0004.77
2021-11-08 17:06:00,,0832.8,5.00,0.00,27.7,26.8,00.0,36.8,29.5,15.0,0000.0,0009.80,0005.57,0004.85
2021-11-08 17:07:00,,0832.7,5.00,0.00,27.7,26.8,00.0,36.8,29.5,15.0,0000.0,0010.21,0005.66,0004.92
2021-11-08 17:08:00,,0832.7,5.01,0.00,27.7,26.7,00.0,36.8,29.4,15.1,0000.0,0010.27,0005.72,0005.01
2021-11-08 17:09:00,,0832.7,5.00,0.00,27.7,26.7,00.0,36.8,29.4,15.1,0000.0,0010.32,0005.84,0005.12
2021-11-08 17:10:00,,0832.8,5.00,0.00,27.7,26.7,00.0,36.8,29.4,15.1,0000.0,0010.37,0005.95,0005.23
2021-11-08 17:11:00,,0832.7,5.00,0.00,27.7,26.7,00.0,36.8,29.4,15.1,0000.0,0010.52,0006.06,0005.31
2021-11-08 17:12:00,,0832.7,5.00,0.00,27.7,26.7,00.0,36.8,29.4,15.1,0000.0,0010.57,0006.15,0005.39
2021-11-08 17:13:00,,0832.7,4.99,0.00,27.7,26.7,00.0,36.7,29.4,15.1,0000.0,0011.24,0006.23,0005.50
2021-11-08 17:14:00,,0832.7,5.01,0.00,27.7,26.7,00.0,36.7,29.4,15.1,0000.0,0011.73,0006.33,0005.59
2021-11-08 17:15:00,,0832.7,5.00,0.00,27.7,26.6,00.0,36.7,29.4,15.1,0000.0,0011.81,0006.39,0005.67
2021-11-08 17:16:00,,0832.6,4.99,0.00,27.6,26.6,00.0,36.7,29.4,15.1,0000.0,0011.77,0006.43,0005.72
2021-11-08 17:17:00,,0832.6,5.00,0.00,27.6,26.6,00.0,36.7,29.4,15.2,0000.0,0011.30,0006.47,0005.78
2021-11-08 17:18:00,,0832.6,5.00,0.00,27.6,26.6,00.0,36.7,29.3,15.2,0000.0,0010.92,0006.51,0005.85
2021-11-08 17:19:00,,0832.6,5.01,0.00,27.6,26.6,00.0,36.7,29.3,15.2,0000.0,0011.25,0006.62,0005.92
2021-11-08 17:20:00,,0832.6,5.00,0.00,27.6,26.6,00.0,36.7,29.3,15.2,0000.0,0011.25,0006.65,0005.96
2021-11-08 17:21:00,,0832.6,5.00,0.00,27.6,26.6,00.0,36.7,29.3,15.2,0000.0,0011.35,0006.71,0005.99
2021-11-08 17:22:00,,0832.5,5.00,0.00,27.6,26.6,00.0,36.7,29.3,15.3,0000.0,0011.34,0006.74,0006.04
2021-11-08 17:23:00,,0832.6,5.00,0.00,27.6,26.6,00.0,36.6,29.3,15.3,0000.0,0011.29,0006.76,0006.06
2021-11-08 17:24:00,,0832.6,5.00,0.00,27.5,26.5,00.0,36.6,29.3,15.3,0000.0,0010.70,0006.78,0006.10
2021-11-08 17:25:00,,0832.6,5.00,0.00,27.5,26.5,00.0,36.6,29.2,15.2,0000.0,0010.22,0006.81,0006.14
2021-11-08 17:26:00,,0832.6,5.00,0.00,27.5,26.5,00.0,36.6,29.3,15.3,0000.0,0010.74,0006.84,0006.16
2021-11-08 17:27:00,,0832.6,4.99,0.00,27.5,26.5,00.0,36.6,29.2,15.3,0000.0,0011.61,0006.89,0006.18
2021-11-08 17:28:00,,0832.6,5.00,0.00,27.5,26.5,00.0,36.6,29.2,15.3,0000.0,0012.15,0006.93,0006.22
2021-11-08 17:29:00,,0832.6,5.01,0.00,27.5,26.5,00.0,36.6,29.2,15.3,0000.0,0012.50,0006.99,0006.26
2021-11-08 17:30:00,,0832.5,5.00,0.00,27.5,26.5,00.0,36.6,29.2,15.3,0000.0,0012.62,0007.03,0006.31
2021-11-08 17:31:00,,0832.6,5.00,0.00,27.5,26.5,00.0,36.6,29.2,15.3,0000.0,0012.96,0007.09,0006.34
2021-11-08 17:32:00,,0832.6,4.99,0.00,27.5,26.5,00.0,36.6,29.2,15.3,0000.0,0013.24,0007.12,0006.37
2021-11-08 17:33:00,,0832.6,5.00,0.00,27.4,26.4,00.0,36.5,29.1,15.3,0000.0,0013.86,0007.15,0006.39
2021-11-08 17:34:00,,0832.5,4.99,0.00,27.4,26.4,00.0,36.5,29.1,15.3,0000.0,0014.09,0007.19,0006.42
2021-11-08 17:35:00,,0832.6,5.01,0.00,27.4,26.4,00.0,36.5,29.1,15.4,0000.0,0014.60,0007.23,0006.43
2021-11-08 17:36:00,,0832.6,4.98,0.00,27.4,26.4,00.0,36.5,29.1,15.4,0000.0,0015.28,0007.29,0006.44
2021-11-08 17:37:00,,0832.5,4.99,0.00,27.4,26.4,00.0,36.5,29.1,15.4,0000.0,0014.95,0007.32,0006.46
2021-11-08 17:38:00,,0832.5,4.99,0.00,27.4,26.4,00.0,36.5,29.1,15.4,0000.0,0014.26,0007.33,0006.48
2021-11-08 17:39:00,,0832.5,5.00,0.00,27.4,26.4,00.0,36.5,29.1,15.4,0000.0,0013.93,0007.37,0006.48
2021-11-08 17:40:00,,0832.5,5.00,0.00,27.4,26.4,00.0,36.5,29.1,15.5,0000.0,0014.27,0007.34,0006.47
2021-11-08 17:41:00,,0832.3,5.02,0.00,27.3,26.4,00.0,36.4,29.1,15.5,0000.0,0013.99,0007.30,0006.45
2021-11-08 17:42:00,,0832.4,5.00,0.00,27.3,26.4,00.0,36.4,29.0,15.4,0000.0,0013.85,0007.26,0006.45
2021-11-08 17:43:00,,0832.4,5.00,0.00,27.3,26.4,00.0,36.4,29.0,15.4,0000.0,0013.65,0007.26,0006.46
2021-11-08 17:44:00,,0832.4,4.99,0.00,27.3,26.3,00.0,36.4,29.0,15.5,0000.0,0012.99,0007.21,0006.48
2021-11-08 17:45:00,,0832.4,5.00,0.00,27.3,26.3,00.0,36.4,29.0,15.5,-000.5,0012.86,0007.23,0006.49
2021-11-08 17:46:00,,0832.3,5.00,0.00,27.3,26.3,00.0,36.4,29.0,15.5,-000.5,0012.43,0007.21,0006.50
2021-11-08 17:47:00,,0832.3,5.00,0.00,27.3,26.4,00.0,36.4,29.0,15.5,0000.4,0011.82,0007.17,0006.51
2021-11-08 17:48:00,,0832.3,4.99,0.00,27.3,26.3,00.0,36.4,29.0,15.5,0000.0,0011.61,0007.15,0006.51
2021-11-08 17:49:00,,0832.2,5.00,0.00,27.2,26.3,00.0,36.4,29.0,15.5,0000.0,0012.10,0007.14,0006.53
2021-11-08 17:50:00,,0832.2,5.01,0.00,27.2,26.3,00.0,36.3,29.0,15.5,0000.1,0011.99,0007.13,0006.56
2021-11-08 17:51:00,,0832.2,5.01,0.00,27.2,26.3,00.0,36.3,29.0,15.5,0000.2,0011.35,0007.13,0006.59
2021-11-08 17:52:00,,0832.3,4.99,0.00,27.2,26.3,00.0,36.3,28.9,15.5,0000.8,0011.30,0007.18,0006.62
2021-11-08 17:53:00,,0832.3,4.99,0.00,27.2,26.3,00.0,36.3,28.9,15.5,0001.4,0011.26,0007.23,0006.65
2021-11-08 17:54:00,,0832.2,5.01,0.00,27.2,26.3,00.0,36.3,28.9,15.6,0001.1,0011.28,0007.29,0006.68
2021-11-08 17:55:00,,0832.2,5.01,0.00,27.2,26.3,00.0,36.3,28.9,15.7,0001.1,0011.64,0007.38,0006.70
2021-11-08 17:56:00,,0832.1,5.00,0.00,27.2,26.3,00.0,36.3,28.9,15.6,0000.3,0011.65,0007.38,0006.71
2021-11-08 17:57:00,,0832.2,5.00,0.00,27.2,26.3,00.0,36.3,28.9,15.7,0000.1,0011.57,0007.41,0006.73
2021-11-08 17:58:00,,0832.2,5.00,0.00,27.2,26.3,00.0,36.3,28.9,15.6,-000.6,0011.59,0007.47,0006.77
2021-11-08 17:59:00,,0832.1,5.01,0.00,27.2,26.3,00.0,36.3,28.9,15.6,-000.7,0012.39,0007.54,0006.81
